Vincent Ho Chak-Yiu

Vincent Ho Chak-Yiu

Statistiques 2026

  • Courses courues : 287
  • Nb de victoires : 23
  • Nb de places : 64
  • Écart gagnant : 10
  • Réussite à la gagne : 8%
  • Réussite à la place : 22%
Musique : 4p 14p 3p 9p 5p 6p 10p 6p 5p 4p 1p 10p 10p 1p 9p 5p 6p 11p
DateRangCatégorieAlloc.Dist.HippodromeChevalPoidsSpé.
10/04/22 3 Galop 181 712€ Hk-Sha Tin Copartner Elites 57,5 Plat
10/04/22 9 Galop 181 712€ Hk-Sha Tin War Weapon 56 Plat
13/04/22 3 Galop 181 712€ Hk-Happy Valley Copartner Fionn 55 Plat
13/04/22 3 Galop 181 712€ Hk-Happy Valley Be Ready 60 Plat
16/04/22 1 Galop 181 712€ Hk-Sha Tin So We Joy 54,5 Plat
16/04/22 4 Galop 181 712€ Hk-Sha Tin High Rise Soldier 57,5 Plat
16/04/22 5 Galop 181 712€ Hk-Sha Tin Call Me Teddy 52,5 Plat
16/04/22 2 Galop 181 712€ Hk-Sha Tin Super Dynamite 58,5 Plat
20/04/22 2 Galop 181 712€ Hk-Happy Valley Rising From Ashes 54 Plat
20/04/22 9 Galop 181 712€ Hk-Happy Valley Majestic Victory 57,5 Plat
20/04/22 7 Galop 181 712€ Hk-Happy Valley Tianchi Monster 60 Plat
24/04/22 7 Galop 181 712€ Hk-Sha Tin Kumasi 53,5 Plat
24/04/22 10 Galop 181 712€ Hk-Sha Tin Jolly Ruler 54,5 Plat
27/04/22 11 Galop 181 712€ Hk-Happy Valley Call Me Teddy 55 Plat
27/04/22 9 Galop 181 712€ Hk-Happy Valley Copartner Fionn 55 Plat
01/05/22 4 Galop 181 712€ Hk-Sha Tin War Weapon 53,5 Plat
04/05/22 3 Galop 181 712€ Hk-Sha Tin So We Joy 60 Plat
07/05/22 3 Galop 181 712€ Hk-Sha Tin Metro Warrior 60 Plat
07/05/22 2 Galop 181 712€ Hk-Sha Tin Copartner Elites 58 Plat
07/05/22 8 Galop 181 712€ Hk-Sha Tin Super Dynamite 59 Plat
11/05/22 1 Galop 181 712€ Hk-Happy Valley Tianchi Monster 59,5 Plat
11/05/22 2 Galop 181 712€ Hk-Happy Valley Be Ready 60 Plat
15/05/22 3 Galop 181 712€ Hk-Sha Tin Call Me Teddy 54 Plat
15/05/22 2 Galop 181 712€ Hk-Sha Tin Keefy 58,5 Plat
15/05/22 5 Galop 181 712€ Hk-Sha Tin War Weapon 54 Plat
18/05/22 9 Galop 181 712€ Hk-Happy Valley Wind N Grass 58 Plat
18/05/22 11 Galop 181 712€ Hk-Happy Valley Packing Famous 54,5 Plat
02/08/24 14 Galop 176 471€ Gb-Goodwood Benacre 54,5 Plat
09/09/20 3 Galop 173 611€ Hk-Happy Valley Reel Bizzy 58 Plat
09/09/20 2 Galop 173 611€ Hk-Happy Valley First Responder 52,5 Plat
13/09/20 7 Galop 173 611€ Hk-Sha Tin Tempest Express 56 Plat
13/09/20 0 Galop 173 611€ Hk-Sha Tin Winning For All 58 Plat
16/09/20 3 Galop 173 611€ Hk-Happy Valley The Runner 55 Plat
16/09/20 8 Galop 173 611€ Hk-Happy Valley Noble Steed 60 Plat
16/09/20 5 Galop 173 611€ Hk-Happy Valley Eternal Harvest 54,5 Plat
27/09/20 6 Galop 173 611€ Hk-Sha Tin Thou Shall Sing 53,5 Plat
27/09/20 10 Galop 173 611€ Hk-Sha Tin Winston's Lad 53 Plat
01/10/20 3 Galop 173 611€ Hk-Sha Tin God Of Dragon 55,5 Plat
01/10/20 0 Galop 173 611€ Hk-Sha Tin Power King 52 Plat
01/10/20 11 Galop 173 611€ Hk-Sha Tin World Famous 60 Plat
04/10/20 2 Galop 173 611€ Hk-Sha Tin Clear Choice 56,5 Plat
04/10/20 9 Galop 173 611€ Hk-Sha Tin Great Treasure 54 Plat
04/10/20 5 Galop 173 611€ Hk-Sha Tin Like That 53 Plat
07/10/20 1 Galop 173 611€ Hk-Happy Valley Naboo Star 57 Plat
07/10/20 6 Galop 173 611€ Hk-Happy Valley First Responder 55 Plat
11/10/20 8 Galop 173 611€ Hk-Sha Tin Quadruple Double 60 Plat
11/10/20 3 Galop 173 611€ Hk-Sha Tin Winning For All 57 Plat
11/10/20 2 Galop 173 611€ Hk-Sha Tin Chancheng Prince 52,5 Plat
14/10/20 6 Galop 173 611€ Hk-Happy Valley The Runner 54,5 Plat
14/10/20 6 Galop 173 611€ Hk-Happy Valley Stimulation 55 Plat